Theta_e
367 365 365 364 362 362 362 362 361 362 362 361 361 360 359 359 359 360 361 361 362 360 357 359 361 363 363 362 363 365 365 364 364 364 363 362 361 361 362 362 361 360 358 357 354 352 351 350 348 346 346 344 343 344 344 344 343 344 345 343 342 342 343 343 348 349 345 341 341 340 341 341 340 340 340 340 339 340 340 339 337 335 337 338 338
367 364 364 364 362 362 363 362 362 362 362 361 361 361 361 361 360 360 361 361 362 362 359 358 359 363 365 363 364 365 365 364 364 364 363 362 361 360 361 362 362 361 360 358 356 353 352 352 350 348 347 346 344 344 345 344 344 344 345 344 343 342 343 343 345 347 346 344 342 341 341 342 342 340 340 339 341 341 341 339 338 335 336 339 340
367 365 365 363 362 361 362 364 363 362 363 363 362 361 362 362 360 361 362 361 361 361 361 361 359 360 364 365 365 364 364 364 363 364 364 362 362 360 359 360 361 361 361 359 357 355 354 353 352 350 348 347 346 345 345 345 344 344 345 344 343 343 343 343 344 346 346 345 343 342 341 340 341 342 341 340 339 341 341 341 340 338 337 339 341
368 367 365 365 364 362 362 365 365 365 365 365 364 363 362 363 362 361 361 361 361 361 360 362 362 360 362 364 365 364 364 364 363 363 364 364 363 361 359 360 361 360 360 359 359 356 355 354 353 351 350 349 349 347 347 346 345 344 345 344 343 343 343 343 343 344 346 345 343 342 342 342 340 340 342 341 340 340 341 342 342 341 338 339 340
369 368 367 366 364 362 362 365 366 366 366 364 363 363 361 364 364 363 361 360 361 361 361 361 363 363 362 363 365 365 364 364 363 363 363 364 364 361 360 360 360 360 360 359 359 358 356 355 353 353 351 350 350 349 348 347 346 345 346 345 343 343 344 345 344 344 344 346 345 343 342 343 342 341 341 341 342 341 340 340 342 342 340 340 340
369 369 368 366 365 364 364 364 364 366 365 363 363 362 361 362 364 365 364 361 360 361 362 362 364 364 364 363 364 365 365 364 364 364 363 364 365 363 362 360 360 360 361 359 358 358 357 356 355 354 353 351 351 350 348 347 346 345 345 346 345 343 343 344 345 345 344 345 345 344 343 343 343 343 341 341 341 341 341 340 339 340 341 341 341
368 368 370 368 365 364 364 363 364 366 364 362 363 361 360 361 363 364 365 364 362 362 363 364 363 364 365 364 364 365 365 364 364 364 365 365 365 364 363 362 360 360 361 360 359 359 357 357 356 355 354 352 351 350 349 347 346 345 345 346 346 344 343 344 345 346 345 345 344 344 343 343 344 344 343 342 341 340 341 341 341 339 340 341 341
368 369 369 369 366 365 365 364 364 364 362 361 362 360 360 360 360 363 365 366 364 362 362 364 364 364 365 366 366 364 364 364 365 364 365 365 366 366 365 363 362 361 360 361 360 360 359 358 357 357 356 354 351 350 350 348 347 346 345 345 345 345 345 344 344 346 347 347 347 345 343 342 343 344 344 343 342 341 340 341 342 341 340 340 341
368 368 369 370 369 367 365 365 364 362 361 362 361 360 360 360 359 361 363 364 365 363 362 361 363 365 366 366 367 366 365 365 365 365 365 365 365 366 364 364 363 361 361 361 362 361 361 360 358 358 356 356 353 351 350 349 347 346 345 346 345 346 345 345 345 345 345 347 348 347 345 343 343 345 345 344 343 342 341 342 342 342 342 342 341
368 368 370 370 370 367 366 366 365 364 362 363 362 361 360 360 361 362 361 362 363 365 364 361 361 365 367 368 368 368 366 365 365 364 364 365 364 365 364 365 363 363 362 362 362 362 362 361 361 359 357 357 355 353 351 350 349 346 345 345 345 345 345 346 345 345 345 346 347 348 347 345 342 344 345 345 344 343 344 343 343 342 342 343 343
369 367 368 371 370 369 368 367 367 366 363 363 363 362 361 361 362 361 360 360 360 363 365 363 361 362 366 368 370 369 367 366 365 364 363 363 363 363 364 365 365 363 362 362 362 362 362 361 361 360 359 358 357 356 353 351 350 349 346 345 345 345 345 346 346 346 346 346 347 346 347 346 344 343 343 345 345 344 344 344 345 344 343 343 343
369 368 369 370 371 370 369 369 369 368 366 365 365 364 362 361 361 361 361 359 359 362 365 365 363 361 364 368 370 371 369 367 366 366 365 363 362 362 363 364 365 364 363 362 362 362 362 362 362 360 359 358 358 357 356 353 351 350 348 346 345 345 345 345 345 346 346 347 347 346 346 346 345 343 343 344 345 344 344 344 345 344 344 344 344
369 369 370 370 372 372 371 370 370 369 368 366 364 365 365 363 362 362 362 361 360 361 363 366 365 363 363 367 370 371 371 370 369 368 366 365 363 362 362 363 364 363 363 362 361 362 361 361 361 360 359 359 359 358 357 355 352 352 350 348 346 346 346 345 345 345 346 346 346 346 346 346 346 345 343 343 343 343 344 344 344 343 343 344 344
368 370 369 370 373 373 372 373 372 371 370 368 367 366 366 366 365 364 363 363 362 362 363 365 366 365 363 365 367 370 370 371 371 370 367 366 364 362 362 362 363 362 362 361 361 360 360 360 360 359 359 358 359 357 357 356 354 352 352 350 348 348 348 347 346 346 346 346 347 346 345 346 346 345 344 343 342 343 343 343 343 343 342 343 344
366 371 370 370 372 373 374 375 374 373 371 370 369 368 368 368 367 366 366 365 364 364 364 366 367 367 366 365 366 368 369 370 371 371 369 367 366 364 363 362 363 363 363 362 361 360 359 359 360 359 358 358 358 358 357 356 355 353 352 351 350 350 350 350 349 348 348 347 347 347 346 346 345 345 344 344 343 342 342 341 341 342 342 342 343
365 369 371 371 371 373 375 376 376 375 373 372 372 370 369 370 369 368 367 365 366 365 366 367 367 367 368 367 367 367 367 367 369 370 371 369 368 366 364 362 363 364 364 364 363 362 361 360 360 359 359 357 358 358 358 357 356 354 353 352 351 350 350 351 350 350 349 348 348 348 348 347 345 345 344 344 343 342 341 342 342 342 343 344 344
366 368 371 371 370 372 376 377 378 376 374 373 372 371 371 372 371 371 368 366 367 367 367 367 367 367 369 369 368 366 366 365 366 367 369 370 369 367 365 363 364 364 364 364 364 363 362 361 360 360 360 359 358 357 358 358 357 355 354 352 352 351 351 351 351 351 350 350 349 348 348 348 348 346 345 345 343 341 341 342 342 342 343 344 343
367 368 371 371 371 373 375 377 378 376 375 376 374 373 373 372 372 372 370 368 367 367 368 368 367 367 368 369 368 368 366 366 365 364 366 368 369 368 366 364 364 363 363 363 364 364 364 363 361 361 361 360 359 358 358 358 357 357 355 354 353 352 351 350 351 351 351 350 350 349 348 348 348 348 346 345 343 341 341 342 342 342 343 343 343
367 367 369 371 371 372 374 377 377 376 376 376 375 374 373 372 372 372 371 369 368 367 368 369 369 369 369 369 369 368 368 368 366 365 365 366 368 368 367 366 365 364 364 363 363 364 365 365 364 363 361 361 361 359 358 358 357 357 356 355 354 353 352 351 350 350 350 350 349 349 348 347 347 347 347 345 343 341 342 342 341 341 341 341 341
367 366 367 369 370 371 373 377 377 377 377 376 375 374 373 373 374 374 372 371 369 368 367 368 369 370 369 369 369 368 369 369 368 367 367 365 366 367 366 366 365 365 365 364 363 364 364 365 365 365 364 363 362 361 360 358 358 357 356 356 355 353 352 351 350 350 350 349 348 348 347 346 345 345 345 344 342 341 341 342 341 341 340 339 339
366 365 366 368 371 372 374 375 375 376 376 376 375 373 373 372 373 372 373 372 371 369 368 367 368 368 370 369 369 369 368 368 368 369 368 367 366 366 365 366 366 365 365 365 364 364 364 363 364 365 365 364 363 362 361 359 358 357 357 357 355 354 353 352 351 350 350 349 347 347 346 344 344 343 343 343 342 340 341 342 341 340 339 339 338
366 366 366 367 370 373 374 373 375 374 374 376 375 374 373 373 372 372 371 372 372 372 371 369 368 368 368 368 368 368 367 367 368 368 368 368 367 365 365 365 365 365 365 365 365 364 364 363 363 363 364 364 364 363 362 361 360 358 357 356 355 355 353 352 351 351 350 349 347 345 345 343 343 342 342 343 342 340 340 340 340 340 340 339 337
367 367 368 368 370 372 372 373 374 372 372 374 375 374 374 372 372 372 371 372 373 372 371 371 369 369 369 369 368 368 368 367 368 368 367 367 366 366 365 365 365 365 365 365 365 365 364 364 363 363 364 364 364 363 363 362 361 359 358 357 356 356 354 352 351 351 350 349 347 345 345 343 343 343 342 343 343 341 340 340 339 339 339 338 338
368 370 368 369 370 370 372 373 372 372 373 373 374 374 373 372 372 372 371 372 372 372 372 372 371 370 369 369 368 367 366 367 367 367 366 366 365 365 365 364 364 364 364 365 365 364 364 364 363 362 363 363 364 363 363 362 361 360 359 358 356 355 355 353 352 351 351 349 347 346 345 344 344 343 342 342 342 342 341 340 339 338 338 338 338
370 369 369 370 370 369 371 372 371 371 372 372 373 374 373 373 373 373 372 372 371 371 372 371 372 371 369 369 368 367 366 365 367 366 365 365 365 364 364 363 363 363 363 363 364 364 364 363 362 362 362 362 363 363 362 362 361 360 359 358 356 356 355 354 353 352 351 349 348 347 346 345 344 344 343 342 342 341 340 339 338 338 338 337 338
370 369 369 370 369 369 369 370 371 371 371 370 372 373 372 373 372 372 372 371 370 370 371 370 369 369 369 369 368 367 366 366 366 366 365 364 363 360 359 360 360 360 360 360 361 362 362 362 363 362 362 362 363 362 362 361 360 359 359 358 357 355 353 354 353 352 350 349 348 347 347 345 344 344 343 342 341 341 340 339 338 338 337 337 337
370 371 371 371 369 368 369 367 369 369 369 369 370 371 370 370 370 371 370 368 368 368 368 367 366 366 367 368 367 367 368 366 363 358 354 352 353 354 354 354 356 355 356 356 357 358 359 359 361 360 360 360 359 359 360 360 359 358 357 356 355 353 353 353 353 352 351 350 348 348 347 346 345 343 342 342 341 340 340 339 337 336 337 336 335
370 370 370 369 368 369 368 367 367 368 367 365 365 367 368 367 366 368 369 367 368 368 367 366 366 365 365 366 365 367 365 358 350 343 339 338 340 341 342 344 348 350 351 353 354 354 354 354 354 356 356 356 355 354 354 356 357 355 353 352 351 351 352 352 352 352 352 350 349 347 347 346 344 343 342 341 340 340 339 338 336 335 335 335 333
370 371 370 369 369 368 367 366 367 365 363 359 359 361 365 366 363 361 362 364 367 367 365 362 362 362 359 356 356 356 351 342 335 333 332 331 332 332 332 334 337 339 341 344 347 348 347 347 349 351 352 352 352 351 350 350 350 349 347 347 347 348 350 350 351 351 351 350 349 347 346 345 344 342 342 341 340 339 338 336 334 333 333 333 331
369 370 371 370 369 368 368 369 368 363 356 351 350 351 352 356 358 356 357 359 360 361 360 357 355 355 349 344 341 341 336 331 329 329 330 330 330 330 330 330 330 331 331 333 336 337 339 343 345 348 350 351 351 350 349 348 348 346 345 344 345 346 347 349 350 350 350 350 348 347 345 344 342 342 341 340 339 338 336 335 334 332 331 331 330
364 365 364 363 364 365 365 366 365 363 356 350 345 342 341 342 344 346 348 350 350 349 349 345 343 343 338 332 330 330 328 327 327 327 328 328 329 329 329 329 330 331 329 328 327 327 331 337 343 346 348 350 350 350 349 349 349 348 347 345 344 345 346 348 349 349 349 349 347 345 344 342 341 341 340 338 337 336 336 335 333 331 330 330 330
358 360 359 358 358 360 360 360 359 360 359 352 344 340 339 339 337 336 335 335 336 335 333 331 330 330 329 328 328 328 327 327 327 327 327 327 327 328 328 329 331 332 330 327 325 323 325 330 336 340 344 347 349 349 349 349 349 349 348 346 345 345 346 347 349 348 348 346 344 343 342 341 340 339 338 337 336 335 334 333 332 331 330 329 329
355 355 355 354 353 353 355 354 353 355 356 353 346 341 339 339 339 337 334 333 332 330 330 330 330 328 327 327 328 328 328 327 327 327 327 327 328 329 329 329 332 333 332 330 328 326 327 328 330 334 337 341 345 346 347 347 348 348 348 347 346 346 346 347 348 348 346 344 342 342 341 340 339 339 337 336 336 334 333 332 331 330 330 329 328
353 353 353 352 351 351 351 351 349 347 348 347 346 343 340 340 341 341 341 341 341 339 336 337 338 335 332 329 328 329 329 327 327 329 330 331 333 334 333 333 335 335 334 333 331 330 329 329 329 331 332 335 337 341 344 346 346 347 347 347 347 347 347 346 348 347 344 342 341 341 341 339 338 338 336 336 335 333 331 331 330 330 329 328 328
350 351 350 350 351 351 351 350 349 346 344 343 343 343 343 343 342 342 343 345 345 343 343 344 344 342 339 336 334 331 329 328 328 331 334 336 337 337 337 337 337 337 337 336 334 333 331 331 330 331 331 332 333 334 338 341 344 346 347 346 346 347 346 346 347 346 343 341 341 341 339 339 338 337 336 335 334 332 331 331 330 329 328 328 328
347 347 348 347 347 349 350 350 349 347 345 343 343 343 341 341 341 341 342 342 341 341 343 345 345 343 340 340 339 335 332 330 331 334 337 338 339 339 339 338 338 338 338 338 337 336 335 334 333 332 332 332 331 332 333 335 338 342 345 345 346 346 346 346 346 344 342 341 341 340 338 338 337 336 335 333 332 332 331 331 329 329 328 327 327
348 348 347 346 344 343 345 345 345 344 343 344 345 344 342 341 340 341 342 342 341 340 341 342 343 342 342 341 340 336 333 332 334 337 339 338 339 340 339 339 339 339 338 339 338 337 337 337 336 335 334 333 332 332 332 332 334 337 340 343 345 346 345 345 345 343 341 341 340 338 337 337 337 335 333 332 331 331 331 330 329 329 328 327 327
347 346 346 346 344 342 342 342 344 345 344 344 343 343 343 342 342 342 343 342 342 341 341 340 341 341 342 342 340 337 334 334 335 338 339 338 339 339 339 338 338 338 338 338 337 336 337 337 336 336 335 335 334 333 333 332 333 334 336 338 341 344 344 345 343 342 340 339 338 337 336 335 335 333 331 330 330 330 329 329 328 328 328 327 327
343 342 343 344 344 344 344 344 344 344 344 342 342 342 342 342 343 342 343 342 342 341 340 340 339 340 340 340 339 337 336 336 337 338 338 337 337 337 338 337 337 337 337 337 336 336 336 336 336 335 335 335 335 334 334 333 333 332 333 334 337 339 342 343 342 340 339 338 338 336 335 333 332 331 329 329 329 329 329 329 328 327 327 327 326
343 343 342 343 343 343 342 343 342 342 342 343 343 342 342 342 342 342 341 342 341 340 340 339 341 340 339 338 337 337 337 337 338 337 336 336 336 337 337 336 336 336 336 336 335 335 335 335 335 334 334 334 334 334 335 335 335 334 334 334 335 336 340 341 340 338 338 337 336 334 333 331 330 329 329 328 328 328 328 328 328 327 327 326 326
344 344 343 343 343 343 343 343 344 343 343 343 344 344 343 342 342 341 341 342 341 340 340 341 341 340 339 338 337 337 337 338 338 337 335 336 336 336 337 336 336 335 335 335 334 334 333 334 333 333 332 332 332 332 333 334 334 335 335 335 335 336 338 338 337 335 334 334 333 331 330 329 328 328 328 328 328 328 328 328 327 327 327 326 326
343 343 343 342 342 342 342 342 343 343 343 342 343 342 342 342 342 341 341 341 341 340 340 340 339 339 339 338 337 336 337 338 338 337 336 336 336 335 336 336 335 335 334 334 334 333 333 333 333 331 331 331 331 331 332 331 331 331 332 333 333 334 334 334 333 332 331 330 330 329 328 328 328 328 328 327 327 327 327 327 327 326 325 324 324
340 339 340 340 339 339 339 339 340 339 339 340 339 339 339 340 340 339 340 340 339 339 340 339 338 338 338 337 337 338 338 338 337 337 337 336 335 335 335 334 334 334 333 333 334 333 332 332 332 331 330 331 331 331 331 331 330 330 329 330 330 330 330 330 331 330 329 329 328 328 328 328 328 328 327 327 327 327 327 327 326 325 323 322 321
337 337 336 336 336 335 335 336 336 336 336 336 335 334 335 335 335 335 335 335 335 336 336 337 337 337 337 337 337 337 337 336 336 335 335 335 334 334 333 333 333 333 333 333 333 332 331 331 330 329 330 330 331 331 331 331 331 330 329 329 329 329 328 328 328 328 328 328 328 328 328 328 328 327 327 327 327 326 326 325 324 322 321 319 319
334 334 333 333 334 333 333 333 333 332 332 332 331 331 331 331 330 331 331 331 332 332 333 333 334 335 335 336 336 335 334 334 333 333 333 333 333 332 331 331 331 331 332 332 331 331 330 330 329 329 329 329 330 330 330 330 330 329 328 328 329 329 329 328 328 328 328 327 327 327 328 327 327 327 327 326 324 324 323 323 321 320 319 318 317
331 332 332 331 331 330 330 330 330 329 328 328 327 327 326 326 326 327 326 326 327 328 328 329 330 330 332 333 333 332 332 332 332 331 331 332 331 331 330 330 330 331 331 331 330 330 330 329 328 328 328 328 329 329 329 329 330 329 328 327 328 329 329 328 328 328 327 327 327 328 327 326 325 325 324 322 321 320 320 320 319 318 318 317 317
328 328 328 328 327 327 327 327 327 326 325 324 323 323 322 322 322 322 321 321 321 321 322 323 323 324 326 328 330 330 330 330 330 330 330 330 329 329 329 329 330 330 330 329 328 329 328 328 327 328 328 328 328 328 329 329 329 329 329 328 328 328 328 327 328 327 327 327 327 327 325 323 322 321 320 319 319 318 318 318 318 317 317 317 316
323 323 323 324 324 324 324 324 323 323 322 321 320 319 319 318 318 318 318 317 317 316 317 316 316 316 318 320 323 326 328 330 330 331 330 329 329 328 328 328 329 329 329 327 326 327 327 326 326 326 326 326 326 327 328 328 328 328 329 328 328 328 328 327 327 326 325 325 324 323 322 321 320 319 319 318 318 317 317 317 317 317 316 316 316
320 320 320 320 320 320 320 319 319 319 319 318 317 317 317 316 316 315 314 313 313 313 312 312 312 312 312 313 315 318 322 326 329 330 329 329 329 329 328 327 327 328 326 326 325 325 325 324 324 324 324 324 324 325 326 326 326 327 326 326 326 326 325 325 325 323 323 322 322 322 321 319 318 318 317 317 317 317 317 316 316 316 315 315 315
317 317 317 316 316 316 316 315 315 315 315 315 315 314 314 314 314 313 312 311 310 309 309 309 309 309 309 310 311 312 314 318 321 323 324 326 328 328 327 325 325 325 324 323 323 323 323 322 322 322 321 322 323 323 324 324 324 324 324 323 323 323 322 322 322 321 321 320 320 320 319 318 317 317 316 316 316 316 315 316 316 316 315 315 314
315 315 314 313 313 313 313 313 312 311 311 311 311 311 310 310 311 311 311 309 308 307 307 306 306 306 307 307 308 308 309 311 313 315 317 321 324 326 326 324 324 324 323 321 321 321 321 320 320 320 319 320 321 321 322 322 322 322 322 322 322 321 320 320 319 319 318 318 318 318 317 317 316 316 316 316 315 315 315 315 315 314 314 314 313
Wind_Speed
37 38 38 38 39 39 38 39 38 36 34 33 33 33 33 32 31 29 28 28 28 29 29 28 26 26 27 27 27 27 28 28 28 28 28 28 27 24 23 25 26 25 25 25 24 23 23 24 23 22 22 22 20 18 17 16 16 17 17 17 17 17 17 15 10 9 11 11 9 9 14 15 16 16 15 16 17 16 16 17 17 17 16 16 17
37 39 40 39 39 39 39 39 39 37 35 34 34 33 32 32 31 29 29 29 29 29 29 30 29 27 27 28 29 28 29 29 29 29 30 30 29 27 25 26 27 27 26 27 26 25 24 25 25 24 22 23 22 21 20 18 18 19 19 19 20 20 20 19 15 12 13 13 13 12 13 15 16 17 17 17 17 17 17 18 17 17 17 16 16
37 39 39 39 40 40 39 38 38 37 35 33 34 33 32 32 33 31 30 29 30 30 29 29 30 30 29 29 30 30 30 31 31 30 31 31 31 30 28 27 29 29 28 28 28 27 26 26 26 26 24 24 24 23 22 21 20 21 22 21 21 21 21 21 19 16 14 15 15 15 16 15 14 15 16 17 17 16 17 18 18 17 18 17 17
36 37 37 37 38 40 39 37 36 36 34 33 33 32 31 31 32 33 32 29 29 31 30 29 30 31 31 30 30 31 31 32 32 32 32 32 32 31 30 29 30 31 30 29 29 28 28 27 27 27 26 26 26 26 25 24 23 23 23 23 23 22 22 23 23 20 16 15 16 17 18 18 17 15 15 16 17 17 16 16 17 17 17 17 18
35 36 36 34 36 38 39 36 35 35 34 33 32 33 31 29 30 32 33 31 29 30 31 31 30 32 33 32 31 32 32 32 33 33 32 32 33 33 31 30 30 31 32 31 30 30 29 29 28 28 28 28 28 28 28 27 26 25 25 25 25 24 23 23 25 24 20 17 17 17 17 18 18 19 18 17 17 18 18 18 18 17 17 17 17
34 34 34 35 36 37 38 36 35 35 35 34 33 33 32 30 30 30 31 32 31 30 31 32 32 32 33 33 33 32 33 33 33 34 33 32 32 32 32 31 31 31 32 32 31 31 31 30 30 29 31 31 30 30 30 30 29 28 27 27 26 26 25 23 24 25 25 22 18 17 17 17 18 19 20 21 19 19 20 20 20 19 18 18 18
34 33 33 34 36 38 38 38 36 36 37 36 34 33 33 32 31 30 30 31 31 30 30 32 33 33 33 34 34 33 34 34 34 35 34 32 31 32 31 31 31 31 31 32 32 32 32 32 31 31 33 33 33 32 32 32 32 31 30 29 27 27 27 25 24 24 25 24 21 19 19 19 19 18 19 20 21 20 20 20 20 21 21 20 20
33 33 33 34 36 38 39 39 38 38 38 37 36 33 33 33 33 32 31 31 31 31 30 31 32 33 34 34 34 34 34 35 35 35 35 33 32 32 32 31 31 31 31 32 32 33 33 33 34 34 35 36 36 35 35 35 33 32 32 31 29 29 28 27 25 24 23 22 21 21 21 20 20 20 19 19 21 22 22 20 20 21 22 23 22
33 33 34 34 35 37 38 38 38 38 37 37 37 36 34 34 34 33 32 31 31 30 30 30 30 32 33 34 34 35 35 36 37 36 37 36 34 33 34 34 32 32 32 32 32 33 33 33 34 35 37 38 38 38 37 37 36 34 34 33 31 30 29 27 26 25 23 21 20 20 21 21 21 21 21 21 23 23 22 21 20 19 20 22 24
33 33 34 34 34 35 37 37 36 37 37 36 37 37 36 34 34 34 34 33 31 31 31 30 30 31 32 33 34 36 36 37 39 40 40 40 38 35 34 35 34 33 33 32 33 33 34 33 34 35 37 38 39 40 39 38 38 37 36 35 35 33 30 28 27 26 24 22 21 21 19 20 22 23 23 23 24 22 21 21 21 20 18 17 19
34 34 33 33 33 33 35 36 35 35 36 36 36 38 37 36 35 35 35 35 33 32 32 32 32 31 31 33 34 36 37 38 40 43 44 43 41 38 35 35 35 35 34 34 34 34 34 34 35 35 37 39 40 40 41 40 39 38 37 37 37 36 34 31 28 27 25 23 23 23 21 21 23 24 23 23 23 23 23 22 21 20 18 16 14
32 34 32 32 33 34 34 35 35 35 36 36 36 37 37 37 36 35 35 35 34 33 33 34 34 32 31 32 33 35 37 38 40 43 45 45 44 41 37 35 35 36 36 36 35 35 34 35 35 35 36 39 41 41 42 42 41 39 38 37 38 38 37 35 33 31 29 26 25 25 25 23 23 24 25 24 24 25 25 24 22 21 20 18 16
29 32 33 32 33 34 33 34 34 35 36 36 35 35 36 37 37 35 34 34 35 35 35 35 35 35 34 33 34 34 35 36 39 42 45 46 46 44 39 36 37 37 38 37 37 36 36 35 35 35 35 36 40 42 43 43 43 41 40 38 37 38 39 39 38 35 33 31 28 28 28 26 25 26 27 26 24 25 26 26 25 23 21 20 19
27 30 33 33 32 33 33 33 33 34 34 34 33 33 34 35 35 34 33 33 35 35 35 35 35 36 36 35 34 34 34 34 36 40 43 46 47 46 42 38 38 38 39 40 39 38 38 37 36 36 34 34 37 41 42 43 44 44 42 41 40 39 40 41 41 38 36 34 32 32 31 30 29 28 28 28 26 25 26 27 26 24 23 22 21
25 27 31 32 31 32 32 31 31 32 32 32 32 33 33 33 33 33 32 32 34 34 34 34 34 34 36 35 33 32 33 34 35 38 42 44 47 48 46 41 38 38 38 39 40 40 40 39 38 36 35 33 35 38 41 42 43 44 44 43 43 41 41 44 44 42 40 38 36 34 32 33 32 29 27 28 28 26 25 26 26 25 22 20 19
25 25 28 31 31 31 31 30 30 31 31 31 32 32 32 32 31 32 31 30 31 31 32 32 32 32 32 33 34 34 33 33 35 38 40 43 45 48 49 45 39 37 37 37 39 40 40 39 38 37 36 36 36 38 40 40 41 42 43 43 44 42 42 44 46 45 44 43 40 35 31 31 32 31 29 27 27 26 23 21 22 22 19 16 16
26 25 26 29 31 30 30 29 29 30 30 30 32 32 31 31 30 31 31 29 28 29 30 31 31 31 31 32 35 36 34 33 34 36 38 41 45 48 50 47 42 39 38 36 36 38 39 40 39 37 37 37 37 38 39 40 39 39 41 42 41 41 41 42 42 44 46 45 43 39 33 30 29 30 30 28 28 27 24 21 20 20 17 14 13
26 25 24 27 29 29 29 28 29 30 30 30 30 30 29 29 29 29 30 29 28 27 27 28 29 30 32 32 34 35 34 33 34 35 35 38 43 48 49 47 43 41 39 37 35 35 37 39 40 40 38 38 38 39 39 40 40 39 39 39 39 40 41 39 37 39 44 45 43 41 38 34 30 29 30 29 28 29 29 26 22 20 17 15 14
25 25 24 24 27 28 28 27 28 29 29 29 28 27 27 27 27 27 28 28 27 26 26 26 27 28 30 30 31 32 32 31 33 35 36 36 40 46 48 45 42 40 37 36 36 35 36 37 39 42 42 39 38 39 41 42 43 41 39 38 38 41 43 40 37 37 41 44 44 43 42 40 35 32 30 29 27 28 31 29 25 21 18 17 17
23 24 23 23 26 27 27 27 27 27 27 28 27 27 26 25 25 25 25 25 25 26 26 25 25 25 26 27 28 30 30 29 30 33 34 36 38 43 44 41 40 38 35 33 34 35 35 35 35 39 42 41 40 41 43 45 47 45 42 40 41 42 42 42 40 39 40 44 45 44 43 42 39 35 33 30 27 26 28 27 26 23 19 17 17
20 22 22 22 24 26 26 26 26 25 25 26 26 26 26 25 25 25 24 23 24 25 25 25 24 24 25 25 26 27 28 28 29 31 33 34 36 40 43 42 38 35 33 33 33 33 34 34 32 33 37 41 43 44 44 47 49 48 46 46 46 43 39 39 41 39 38 41 42 41 40 39 38 36 34 31 30 28 26 27 28 28 25 21 18
19 20 21 22 22 23 24 25 25 25 24 24 25 25 25 25 24 25 24 23 23 23 23 23 22 22 22 24 24 25 25 25 28 31 34 35 35 37 41 43 40 36 33 33 32 32 32 31 31 32 34 37 42 46 47 47 49 50 51 50 47 43 38 38 38 37 36 37 38 37 37 37 36 35 33 32 32 31 30 30 31 30 28 23 19
17 18 19 21 21 22 23 23 24 24 24 24 24 23 23 23 23 23 23 22 21 21 21 21 21 20 20 20 20 21 20 21 23 27 30 32 34 35 38 42 42 39 36 34 33 33 32 31 30 30 31 32 37 44 50 50 49 51 53 50 46 42 39 37 36 35 35 35 35 35 36 36 35 34 34 33 32 33 34 33 31 31 29 25 21
16 18 18 19 20 20 20 21 22 22 21 22 22 21 21 21 21 21 21 20 18 17 18 19 18 17 16 16 16 17 17 16 17 19 20 22 26 30 34 38 41 43 41 38 35 33 31 31 30 30 31 32 34 39 46 51 52 53 54 52 48 44 40 37 36 35 34 33 35 36 36 37 37 36 37 35 32 32 35 34 31 31 31 29 25
12 15 15 16 17 18 18 19 20 19 19 19 19 19 19 19 18 17 18 18 16 15 14 15 15 15 14 14 14 14 14 14 15 17 18 20 22 25 30 34 39 43 44 41 38 37 36 34 33 32 33 34 34 35 41 50 55 56 55 55 52 47 42 39 37 36 35 36 37 37 36 39 40 39 37 36 33 32 33 33 31 31 32 31 29
9 11 12 13 15 16 16 17 18 16 16 17 17 17 17 17 16 14 14 14 14 13 12 12 13 13 14 14 14 14 15 15 14 11 10 13 17 21 26 31 37 42 45 43 40 38 37 37 37 37 37 38 37 37 38 45 53 57 58 58 56 51 45 41 39 38 38 38 37 37 38 39 40 38 36 36 36 35 36 35 32 31 32 32 29
8 10 11 13 14 15 16 16 16 16 16 16 16 17 16 16 16 16 16 15 15 14 14 13 13 14 13 13 13 13 13 10 3 4 6 6 6 8 12 17 23 30 37 41 43 42 41 39 39 41 42 42 41 40 38 40 47 55 58 59 58 55 50 46 44 42 41 39 38 37 38 38 38 38 39 40 39 38 38 38 35 33 33 32 29
9 10 11 12 13 14 14 15 17 16 14 11 10 13 15 16 15 14 13 13 13 14 14 13 13 12 7 3 1 1 2 5 9 10 9 9 7 6 7 9 11 16 21 27 33 39 41 41 41 40 39 39 38 38 38 40 44 51 56 57 57 55 53 50 47 44 42 41 39 37 35 36 37 39 40 40 38 38 40 41 37 33 33 33 30
8 8 9 10 12 12 12 12 13 14 15 15 14 12 11 11 14 14 11 8 7 8 9 9 7 6 7 9 8 7 9 10 11 11 11 11 10 9 8 8 9 12 16 19 23 27 30 33 37 38 37 36 35 35 37 39 41 43 46 50 52 51 50 47 45 43 42 40 38 36 35 35 36 37 38 37 36 38 42 42 38 33 32 33 31
10 10 10 9 9 9 9 8 10 15 20 21 21 21 20 17 16 15 13 10 8 8 10 11 8 7 10 10 9 8 9 9 10 12 13 14 14 14 14 13 13 13 14 16 21 24 25 26 29 33 34 35 35 35 37 38 37 36 39 44 46 46 45 45 45 43 41 40 39 37 37 36 36 36 36 34 34 37 41 40 37 35 33 32 29
11 11 12 12 11 11 11 12 13 16 19 20 21 23 23 21 18 16 13 11 9 9 10 11 10 10 11 12 12 11 11 11 11 12 13 15 16 17 18 19 20 20 18 15 14 18 22 25 27 29 31 33 34 36 38 38 37 37 38 41 44 45 44 45 45 44 43 42 39 37 35 35 34 34 34 33 32 35 37 37 36 35 34 31 28
11 10 10 11 11 11 10 12 13 14 15 18 20 21 21 20 20 19 18 17 15 15 15 16 15 15 14 14 13 12 12 12 11 12 13 13 14 16 17 19 22 23 21 17 14 15 18 21 25 27 29 31 35 38 38 37 39 39 39 39 43 46 47 48 48 48 45 41 37 36 35 34 33 34 35 34 33 33 34 34 34 33 31 29 27
11 11 11 13 13 12 12 13 14 13 13 15 16 17 17 16 15 16 17 18 16 16 15 15 14 13 12 11 11 12 13 12 12 12 12 13 14 14 15 18 21 22 20 17 16 17 19 20 23 25 27 30 35 38 39 39 38 39 40 41 45 49 52 54 53 49 43 39 39 41 41 40 40 39 39 38 37 35 33 32 30 29 27 26 25
14 14 14 14 14 13 13 13 14 14 15 15 14 13 13 13 12 13 14 13 12 12 11 10 10 10 9 7 8 11 13 13 13 12 11 12 14 16 18 20 21 20 18 18 18 20 22 24 26 27 27 29 33 37 39 39 38 39 42 46 49 52 54 55 54 50 45 43 45 47 47 45 44 41 39 37 35 33 32 31 29 28 27 25 24
16 15 15 14 14 14 14 14 14 14 15 15 14 13 11 11 10 10 9 8 8 8 9 9 7 6 7 5 6 9 13 16 15 12 11 11 12 14 18 20 18 17 18 20 21 22 24 26 29 31 30 30 32 35 37 38 39 40 43 46 47 48 48 48 50 50 49 48 48 48 47 47 46 43 40 38 35 33 31 31 31 30 28 27 25
15 15 15 14 14 13 13 13 12 12 12 12 11 11 9 9 9 8 7 7 7 6 6 8 6 3 4 3 4 8 14 18 16 12 10 11 11 13 15 15 14 15 17 20 21 22 23 26 30 33 33 33 35 36 36 37 38 41 44 45 45 44 44 44 45 47 48 48 48 48 46 45 44 44 43 40 38 37 35 34 32 32 31 29 27
14 14 14 14 14 14 14 13 13 12 11 10 9 9 8 8 7 6 6 8 6 4 5 6 4 2 4 3 3 10 16 20 17 12 11 12 12 13 13 13 14 15 17 19 21 22 25 28 31 33 34 36 37 38 38 38 38 40 42 44 46 46 46 46 46 48 47 44 43 44 43 43 44 46 45 41 37 36 36 34 32 32 32 31 28
16 16 14 14 14 14 13 11 10 9 8 8 8 7 7 6 5 4 4 5 5 4 5 4 2 3 5 3 3 10 16 19 17 13 11 11 12 13 13 14 16 16 18 20 22 24 27 29 31 33 35 37 39 41 40 39 38 39 39 42 44 46 48 49 48 48 46 44 43 44 41 40 41 43 43 40 35 33 33 33 32 32 31 30 27
16 16 15 14 13 11 9 8 8 6 6 7 7 5 5 6 5 2 1 2 3 3 2 2 2 1 4 3 3 9 13 14 14 13 12 12 12 13 13 14 16 17 19 21 23 24 25 28 31 33 34 34 36 38 38 38 38 38 38 39 42 43 43 43 42 42 42 43 45 47 45 42 41 41 40 38 36 34 33 33 32 32 31 30 27
13 13 14 13 10 8 9 10 10 8 7 7 5 3 4 5 4 2 3 3 3 3 3 3 5 8 7 5 7 11 11 9 10 11 12 13 13 14 14 15 15 17 19 20 21 22 25 28 31 33 32 32 31 30 32 36 38 37 39 39 38 39 40 38 37 39 42 44 45 46 45 43 43 43 41 38 38 37 35 33 32 31 30 30 28
12 11 13 15 13 11 13 15 14 12 11 11 9 8 8 8 8 7 7 8 9 9 9 10 9 7 6 8 11 13 11 8 9 11 12 13 14 15 15 16 16 16 18 19 21 22 24 27 30 30 30 31 29 26 22 21 22 27 34 33 24 24 31 31 27 24 25 31 37 40 41 40 40 42 40 38 37 37 35 33 31 28 26 27 28
13 12 13 15 16 16 16 15 14 12 12 12 11 11 10 10 10 10 10 10 11 11 10 10 9 7 6 8 11 13 11 9 9 11 12 13 13 15 16 17 17 17 18 20 20 19 21 24 26 26 26 26 26 28 29 28 28 23 12 1 12 13 5 23 36 37 31 31 36 40 42 41 38 37 36 35 35 34 31 29 27 24 23 25 27
16 16 15 16 17 17 16 14 12 12 12 12 13 15 15 14 14 15 15 15 15 14 12 12 13 12 10 10 12 12 10 9 11 13 12 12 12 14 14 15 16 17 19 19 17 16 16 19 21 22 22 23 24 29 33 36 39 39 34 30 35 36 31 31 38 41 39 37 37 39 39 38 35 33 32 32 31 30 28 26 24 23 23 26 26
17 17 17 17 16 16 15 14 13 14 16 16 17 18 18 18 17 17 16 15 15 14 13 13 15 15 14 14 13 11 10 11 12 13 12 12 12 12 13 14 16 17 18 16 14 14 14 15 15 16 19 22 25 28 33 36 38 41 42 43 43 42 41 41 42 43 43 41 38 37 35 32 32 32 31 29 26 24 23 24 23 22 23 24 24
16 17 17 17 16 16 17 17 16 17 19 19 18 18 18 17 16 15 15 14 14 14 14 14 15 16 16 15 13 11 11 12 12 12 12 13 12 12 13 14 15 15 15 14 12 12 11 11 11 14 16 18 21 23 26 29 31 34 37 39 40 38 37 37 38 39 38 36 35 34 31 28 28 28 27 25 22 21 21 22 21 20 19 20 20
20 19 18 18 18 19 19 18 18 19 20 18 17 17 17 16 15 15 15 16 16 16 16 17 17 17 17 16 14 13 12 12 12 12 12 11 11 12 13 14 14 12 11 10 8 8 9 9 11 14 15 16 17 19 20 23 25 28 30 32 33 33 33 33 34 33 32 32 32 31 28 26 25 24 23 21 19 19 19 19 19 18 17 17 17
22 21 19 19 19 19 19 19 20 20 19 18 17 16 16 16 16 16 16 17 18 18 18 19 19 20 19 17 15 14 13 12 12 12 12 11 11 12 11 11 11 10 8 5 5 8 10 11 13 15 15 15 16 17 18 20 22 24 26 27 29 29 28 28 29 30 29 29 30 30 28 26 24 23 21 19 17 16 16 17 17 17 16 16 16
23 22 22 21 20 19 19 19 19 19 18 17 17 17 16 17 17 17 17 18 19 19 19 20 21 21 21 20 19 18 16 13 12 12 12 11 11 11 10 9 8 7 6 7 9 11 12 13 14 14 15 16 17 18 18 19 21 22 24 25 26 25 25 25 27 28 27 27 28 29 27 25 23 22 21 18 17 16 15 15 16 17 16 16 15
24 23 23 22 22 21 20 20 19 18 17 16 16 17 17 18 19 20 20 20 20 20 21 21 21 22 22 22 22 22 21 18 16 16 16 13 10 9 10 9 6 6 7 8 9 11 12 13 14 14 14 15 17 18 18 19 20 21 22 23 23 23 23 24 25 25 24 24 24 24 23 21 20 20 20 18 18 17 14 13 15 17 17 15 14
25 24 23 23 22 22 21 21 20 19 18 18 18 18 18 19 19 20 20 20 21 21 21 22 22 23 24 24 24 24 25 23 21 21 22 20 15 12 12 11 10 10 10 9 10 11 12 13 14 14 14 15 16 18 19 19 20 20 20 20 20 20 20 21 21 20 20 20 20 20 21 20 18 18 19 18 17 16 14 12 12 15 16 15 13
25 25 24 24 24 22 21 21 21 21 21 20 20 20 19 18 17 18 19 20 21 21 21 22 23 25 27 28 28 27 27 26 25 24 26 26 22 18 16 15 14 14 14 12 11 11 12 13 14 14 14 15 17 18 18 18 18 17 16 17 17 17 18 19 19 18 18 18 18 18 19 19 18 18 18 17 15 14 14 12 10 12 13 13 12
Wind_Direction
190 191 192 194 196 197 199 201 202 203 203 204 204 207 208 209 209 209 210 209 208 208 208 207 205 205 205 205 205 204 204 203 204 204 204 205 207 208 208 207 207 207 207 207 208 210 210 211 214 218 217 218 219 218 218 220 215 210 210 215 217 216 217 219 222 236 234 231 234 206 196 207 208 205 211 215 221 228 230 235 238 237 241 247 251
191 193 193 195 197 197 198 200 202 203 203 204 205 207 207 209 209 209 209 210 209 209 209 209 207 206 205 206 206 205 205 204 203 204 205 206 206 208 208 208 209 208 208 209 209 209 211 212 213 216 216 215 218 218 218 219 214 210 212 214 217 216 216 217 217 226 234 233 234 225 213 211 206 204 209 212 220 228 227 230 236 237 239 243 248
193 195 196 196 197 197 198 199 200 201 201 202 204 205 207 209 210 209 209 210 211 210 210 209 208 208 207 207 206 206 206 206 205 204 206 207 207 208 209 209 209 209 209 210 210 210 210 212 213 213 214 214 216 216 215 218 216 212 211 214 216 217 217 218 216 219 228 231 232 230 228 225 217 211 213 215 220 229 231 231 233 234 235 237 240
193 194 196 197 196 197 198 197 197 198 199 200 202 204 206 208 209 210 210 211 211 211 211 209 209 209 208 208 208 207 207 206 206 206 207 208 210 210 209 209 209 210 212 212 212 211 210 211 212 212 212 213 214 215 214 216 217 214 212 212 215 217 217 218 217 218 223 228 230 229 230 233 231 223 220 220 220 224 231 233 232 231 232 235 237
193 192 194 196 196 197 198 197 196 197 198 200 203 204 204 206 207 209 210 211 211 211 210 209 209 209 209 209 209 208 208 208 207 208 209 210 212 213 212 212 211 211 213 214 214 214 213 213 212 211 211 211 212 213 213 214 216 216 213 212 213 215 216 217 217 218 220 224 228 229 230 232 229 224 223 221 219 221 227 232 233 232 231 233 236
193 191 191 194 197 199 199 199 199 198 200 202 203 204 205 206 206 206 207 209 210 210 209 209 209 210 210 210 210 210 209 209 209 209 210 211 212 214 215 215 215 214 214 215 216 216 216 216 215 212 210 211 212 212 213 214 214 215 214 213 213 214 215 217 216 215 217 222 227 228 229 229 224 221 222 222 221 222 223 228 234 236 234 231 232
194 192 192 194 197 199 200 201 201 200 202 204 205 205 206 207 207 206 206 207 209 210 209 209 209 210 211 211 212 212 210 210 211 211 211 212 212 213 215 216 217 217 217 216 216 217 218 218 217 215 213 213 213 213 213 213 214 215 215 213 212 212 214 216 216 213 213 217 223 226 229 230 226 223 222 221 222 225 225 223 227 232 234 235 233
195 194 194 196 198 199 201 202 203 203 204 205 206 206 207 208 208 208 207 206 209 211 211 210 209 210 211 212 212 213 213 212 212 212 211 211 212 213 214 215 216 217 218 218 217 217 218 219 219 219 217 216 215 214 213 213 212 213 214 213 212 211 212 213 214 214 212 212 217 222 226 229 227 224 221 217 218 224 226 223 223 228 231 234 236
196 195 195 198 199 199 200 202 204 206 205 205 206 207 208 209 210 209 209 207 209 211 213 212 210 209 210 212 212 212 214 213 212 212 210 210 212 214 214 215 216 217 217 217 217 217 218 219 219 220 220 220 219 217 216 214 213 212 212 211 211 210 211 211 212 213 213 213 214 216 219 223 223 219 216 214 215 220 224 226 229 231 232 234 236
195 197 198 199 199 198 199 202 204 206 206 205 206 207 208 209 210 211 211 211 210 210 212 214 214 211 209 210 211 212 214 215 214 213 211 210 211 213 214 215 216 217 217 217 217 218 219 220 221 221 222 222 222 220 219 218 217 215 213 211 210 210 209 209 210 211 211 212 214 213 214 218 219 218 216 217 218 219 221 223 228 232 234 234 236
195 198 199 198 198 198 199 201 203 205 206 206 206 206 207 208 210 211 212 212 211 210 210 212 214 214 210 209 211 213 215 217 216 215 214 213 212 212 213 214 215 217 218 218 218 219 220 222 223 223 223 223 223 222 220 220 220 218 217 215 214 212 210 209 210 210 210 212 213 213 215 218 219 219 220 220 219 219 219 220 222 226 229 229 231
195 197 198 196 197 199 199 199 202 204 206 206 206 206 207 208 210 211 211 212 211 211 210 211 213 215 213 210 211 214 217 219 218 217 216 215 214 212 213 214 215 217 219 219 220 220 221 222 223 224 225 224 224 223 221 221 221 220 218 218 218 218 215 213 212 211 210 212 213 213 216 218 218 218 219 219 218 217 215 215 219 220 222 225 228
198 195 197 196 196 198 198 199 201 204 205 206 206 205 206 208 210 211 211 211 211 211 212 211 213 215 216 214 213 215 219 220 219 218 218 217 216 214 213 214 216 218 219 220 221 222 223 223 223 224 226 226 225 223 221 220 220 220 220 219 220 221 220 219 218 216 214 213 214 215 215 216 216 217 217 218 219 215 209 210 215 218 219 224 228
202 195 195 197 196 197 198 199 202 204 204 204 205 205 206 208 209 210 211 211 211 212 213 213 213 214 216 217 217 217 219 220 220 220 219 219 218 217 216 217 218 220 221 221 222 223 224 224 225 225 225 226 226 223 221 220 219 219 218 218 219 221 221 221 221 220 218 217 218 219 218 216 217 219 218 219 221 218 208 206 210 213 217 225 230
205 197 194 196 196 195 197 199 201 203 203 202 203 205 207 208 208 208 210 210 212 213 214 214 215 216 217 220 222 223 223 222 223 222 221 220 220 219 219 220 221 222 223 223 223 224 225 226 226 227 226 226 227 224 221 219 218 217 216 217 220 221 221 221 220 219 219 219 221 221 221 219 219 220 220 219 223 224 217 213 213 213 216 222 228
208 201 194 195 196 195 196 198 199 202 202 201 203 205 206 207 207 207 209 212 214 215 216 217 218 218 219 220 224 227 228 226 225 225 223 221 220 220 220 221 224 226 226 226 225 226 227 227 227 228 227 227 228 227 224 219 216 216 216 217 220 222 223 225 223 221 220 221 222 222 222 222 221 222 222 222 223 223 218 212 209 207 206 209 217
209 204 197 196 196 195 195 196 198 200 200 201 203 205 205 206 206 207 209 212 215 216 217 219 221 221 222 222 224 228 230 230 230 230 227 222 220 219 220 221 224 228 230 229 229 229 229 228 227 227 228 227 227 228 226 220 216 216 217 218 220 223 226 228 227 225 224 225 225 224 224 223 222 222 223 223 223 218 208 198 195 195 196 199 208
208 207 201 197 196 195 194 196 198 199 201 202 203 203 204 205 207 207 208 210 214 216 217 220 221 222 223 224 225 229 231 232 233 235 233 226 221 219 220 221 223 229 232 232 233 234 233 231 229 228 227 227 226 227 227 220 215 216 218 218 220 223 225 227 227 226 226 227 227 226 226 226 224 223 222 222 223 219 210 203 198 196 198 202 207
207 207 204 197 195 195 195 198 199 200 202 202 202 201 202 204 206 207 208 210 214 216 216 218 220 222 224 226 228 230 231 232 234 236 237 233 225 221 219 220 223 228 232 234 236 237 237 236 234 231 229 227 226 226 226 220 216 216 217 217 219 223 224 223 223 223 223 223 224 224 225 226 228 228 227 225 225 221 215 210 203 201 206 208 206
207 206 204 197 194 195 197 200 200 201 202 203 202 202 201 201 203 204 207 209 213 216 218 219 221 222 224 226 230 231 231 232 234 236 238 236 231 224 219 219 224 228 231 234 237 238 239 239 238 236 233 230 227 227 227 222 218 217 216 216 220 224 224 222 222 222 219 218 219 220 222 224 227 228 228 227 225 220 215 209 202 203 214 217 209
204 204 202 197 194 195 198 200 200 201 204 203 203 202 201 201 202 202 205 208 210 213 217 220 222 225 224 226 230 232 232 232 233 236 237 238 236 228 222 222 225 228 232 235 238 240 241 241 242 242 239 234 230 229 229 226 221 218 217 220 224 226 224 222 222 221 218 215 215 215 217 219 221 223 224 224 222 216 210 206 204 206 213 218 215
199 199 200 197 195 196 199 200 200 202 205 204 202 200 199 200 202 202 203 207 209 210 213 217 221 226 228 228 231 233 234 235 235 235 236 238 238 232 227 227 229 230 232 236 239 242 244 244 245 246 245 241 236 232 232 231 225 220 221 225 227 226 224 222 221 217 213 210 207 207 209 210 211 213 214 217 218 215 210 208 209 209 212 217 218
194 195 197 197 198 200 200 198 198 201 204 204 200 198 197 199 201 202 203 206 208 208 209 213 218 225 231 233 234 235 237 239 241 242 241 239 238 235 233 232 231 229 231 236 240 243 246 248 249 249 249 248 243 238 235 233 229 226 225 226 226 225 223 221 218 212 207 204 201 201 202 203 203 205 207 209 211 212 212 212 211 210 211 215 219
191 190 193 196 199 201 199 196 196 199 202 200 196 194 195 197 201 202 202 204 207 207 207 210 215 223 231 236 239 240 242 246 249 252 253 248 243 241 239 237 234 231 231 235 240 244 247 249 250 250 250 250 249 245 240 236 233 231 229 226 224 224 222 219 214 210 204 201 200 200 199 198 199 202 203 204 205 208 211 212 212 214 214 212 213
178 180 187 192 196 199 198 194 191 194 197 194 189 189 191 194 200 202 199 201 207 210 209 209 212 221 231 238 242 244 245 249 254 258 262 260 255 250 246 242 238 234 232 234 240 243 245 247 249 251 251 250 251 249 244 240 237 234 230 226 223 221 220 218 214 209 205 204 203 202 199 198 200 201 200 200 201 203 206 208 209 212 213 210 210
161 172 181 188 193 195 195 191 186 186 189 186 185 188 190 192 195 196 196 202 208 212 214 214 215 220 226 229 234 239 241 244 251 261 268 266 260 255 249 245 242 238 235 236 240 244 245 246 248 250 251 250 250 248 246 243 239 235 231 226 222 219 219 217 213 209 208 208 206 203 201 199 198 198 196 196 199 200 198 198 199 201 204 202 199
160 173 178 182 188 191 191 188 182 182 187 188 187 188 191 194 193 191 196 204 207 208 211 213 216 220 224 226 229 233 234 233 232 45 33 5 326 296 277 266 258 252 248 246 247 248 249 249 251 252 254 254 254 252 249 245 240 236 232 227 222 220 220 218 216 214 212 210 209 207 204 198 194 191 191 193 197 198 195 193 192 192 192 191 187
172 179 178 176 180 185 184 181 181 180 176 170 171 178 189 195 187 178 185 197 199 199 200 203 211 215 210 193 179 176 99 64 49 35 21 11 360 338 321 307 289 278 271 264 261 260 259 258 258 261 262 262 260 257 251 244 239 235 232 227 223 222 222 220 219 218 215 213 211 207 202 196 192 189 190 193 195 193 189 187 185 183 183 182 179
146 155 157 159 168 173 172 173 175 161 133 108 96 102 123 142 137 126 124 132 139 142 135 125 127 127 99 80 70 65 60 50 35 23 16 14 9 356 341 324 300 284 276 271 269 269 267 264 261 260 260 260 259 256 251 245 240 235 231 227 224 223 223 221 220 219 215 212 210 205 199 195 191 189 191 193 191 186 183 182 181 179 177 177 179
94 93 90 97 115 124 118 110 114 120 116 106 94 88 89 95 105 107 103 103 105 106 105 101 97 95 92 89 88 82 70 54 37 28 21 14 11 9 3 353 338 321 301 281 269 267 267 265 261 257 255 254 252 249 247 245 240 236 232 229 227 225 224 223 222 219 215 211 208 204 197 193 190 187 188 188 183 180 181 181 180 176 173 172 175
86 80 76 77 80 82 80 77 85 101 111 108 101 95 90 88 91 93 95 100 100 98 101 102 103 105 103 97 91 81 65 48 35 27 19 14 11 7 1 355 349 342 335 321 293 272 264 261 259 258 255 253 252 250 247 243 239 235 232 229 227 226 225 224 223 220 215 210 206 200 196 194 190 185 183 180 176 176 178 179 178 176 174 173 172
90 92 93 91 85 81 82 84 86 96 106 109 107 104 99 96 93 91 95 98 98 97 98 97 96 95 91 84 75 61 47 38 29 18 10 8 4 360 358 355 349 342 339 335 318 293 275 265 262 261 258 255 254 253 250 245 241 237 233 229 226 224 224 223 222 218 214 208 200 194 195 194 190 185 182 178 174 174 177 178 177 176 176 175 173
102 101 98 94 89 87 88 88 88 92 100 107 112 115 118 118 113 109 107 101 96 95 94 90 86 81 73 67 59 42 30 23 14 2 358 358 355 352 352 350 344 339 336 332 320 304 293 281 271 268 265 261 259 257 254 250 245 240 236 232 228 225 223 221 219 217 211 202 195 193 193 191 188 184 181 178 177 176 176 176 176 174 173 173 174
108 107 106 102 98 93 89 85 84 84 86 91 95 101 109 117 122 128 128 121 116 115 110 100 86 69 54 48 40 28 16 6 356 348 345 347 347 343 340 339 339 334 327 321 311 301 294 287 280 276 272 269 268 265 261 257 250 243 240 237 233 230 226 220 215 212 205 197 194 194 192 188 185 182 178 176 175 173 170 172 176 175 173 172 173
107 108 108 105 100 95 91 87 85 82 83 88 90 91 95 100 103 108 115 118 118 122 130 133 113 56 36 31 24 15 6 356 348 339 332 333 333 330 328 329 328 324 319 314 306 298 292 287 284 281 275 272 272 272 268 264 258 249 244 241 238 235 230 222 214 208 202 196 194 192 189 186 182 178 174 171 168 167 168 172 175 177 178 176 173
110 107 102 96 92 89 88 90 89 83 82 88 96 101 100 95 95 99 102 100 92 86 114 135 130 66 56 67 18 355 351 350 349 347 342 337 332 327 326 322 315 310 311 311 307 302 298 295 292 288 282 276 274 273 270 268 264 257 252 249 245 241 235 226 216 207 201 197 192 188 185 182 178 173 170 169 169 169 171 172 172 174 178 178 176
98 94 91 91 91 87 86 89 89 85 83 84 89 95 93 87 92 103 103 104 108 108 109 116 121 129 124 106 348 333 338 345 352 357 354 348 342 338 334 327 320 318 316 313 312 312 309 305 302 298 290 281 276 272 268 267 266 264 259 255 250 244 238 229 218 208 201 195 187 182 180 177 174 170 168 167 168 169 168 167 168 170 175 178 179
82 80 80 89 96 92 89 94 95 93 98 98 91 93 102 101 95 95 106 123 143 143 118 116 172 189 153 139 326 331 340 346 348 348 349 349 347 344 339 332 328 325 320 318 318 318 315 313 311 307 299 290 281 273 268 265 264 264 264 262 258 252 243 233 220 208 198 189 180 175 173 172 170 167 164 162 161 160 159 161 165 168 172 177 179
83 80 77 84 97 101 100 103 99 87 89 96 92 95 111 106 89 70 112 140 141 132 138 193 243 98 107 110 6 353 354 349 339 334 341 347 343 338 337 336 331 325 322 322 323 322 320 320 320 317 312 304 292 281 272 267 262 258 259 261 261 258 249 235 219 203 190 181 174 169 167 165 164 160 156 153 152 152 153 159 166 171 174 177 180
88 82 69 61 73 97 97 87 78 65 61 69 67 54 69 79 68 19 359 10 5 349 340 357 33 51 58 45 17 8 1 344 322 324 337 344 341 337 338 337 331 325 322 321 322 324 326 326 326 325 325 322 316 305 288 274 265 260 258 256 257 259 251 232 210 194 184 176 168 162 159 158 155 150 148 148 150 152 156 161 167 172 176 180 185
88 85 67 52 52 68 73 66 57 48 44 47 45 34 27 27 22 13 8 2 355 351 353 1 16 27 22 12 9 4 352 330 316 327 341 345 342 339 337 333 331 328 324 320 322 329 335 335 334 336 337 337 343 349 336 311 294 280 265 253 252 262 247 214 179 157 155 155 148 142 140 141 140 139 142 149 153 157 161 166 170 175 180 184 186
85 78 69 59 53 56 61 61 57 49 44 46 46 36 25 19 17 14 9 6 5 1 353 350 355 2 5 5 2 355 343 330 330 342 350 349 343 337 331 329 330 330 325 322 324 332 340 342 343 349 353 354 6 25 33 32 28 12 332 239 89 64 132 153 134 119 114 119 122 123 126 130 132 134 139 147 154 159 165 170 174 177 174 172 172
82 72 68 67 61 55 53 55 57 54 48 49 49 40 30 29 28 22 17 18 15 7 358 357 358 357 356 1 4 0 354 350 351 352 350 346 341 334 330 330 331 329 327 327 326 330 342 348 350 359 12 19 29 45 54 57 55 49 46 57 68 67 69 87 102 107 108 107 108 113 118 123 128 133 140 148 155 162 168 171 171 167 160 157 162
79 74 69 69 67 62 56 53 54 53 47 46 47 42 34 32 32 25 21 20 15 7 4 4 2 358 358 2 7 8 6 1 355 350 346 343 340 337 336 335 332 331 331 331 327 328 342 356 2 9 26 41 50 57 64 68 70 68 64 63 66 69 71 75 83 91 96 98 102 108 115 123 132 140 148 155 161 166 168 165 161 157 151 150 155
70 71 69 65 62 59 56 52 52 52 46 42 42 39 34 32 30 25 22 19 14 10 9 7 3 3 4 3 4 8 9 3 353 345 341 340 340 344 346 340 335 335 335 332 330 340 354 12 26 29 35 48 59 66 71 73 73 76 78 78 78 81 84 88 92 98 103 109 113 116 122 131 141 147 153 158 160 160 159 158 156 154 153 153 155
62 62 65 64 60 57 55 54 54 53 49 44 40 38 34 31 28 26 24 23 19 17 15 12 8 6 4 2 3 4 4 359 350 342 340 344 347 349 349 343 340 342 339 332 343 14 29 41 52 53 52 57 66 76 84 87 85 86 89 93 98 103 106 106 108 112 117 123 128 131 133 136 143 149 153 154 151 150 151 154 156 158 160 164 166
61 60 61 63 61 58 57 55 55 55 53 48 44 41 37 34 31 28 26 25 24 22 19 15 11 7 2 359 359 360 358 353 346 341 344 353 355 352 351 352 354 357 1 8 39 59 63 65 70 71 70 70 76 85 92 94 96 98 100 103 107 110 113 116 120 124 129 134 139 142 142 140 143 149 151 150 149 149 150 155 162 164 165 169 174
59 58 57 57 57 56 54 52 53 55 54 50 47 45 42 39 36 32 29 29 28 25 23 19 14 10 7 3 0 359 356 349 347 352 358 2 3 0 358 359 3 13 35 59 70 73 73 72 71 72 74 75 79 86 92 95 99 103 107 110 113 115 119 123 126 130 134 139 142 143 143 141 143 148 151 152 154 154 154 158 167 172 172 173 176
57 58 57 56 56 56 54 52 52 53 51 48 47 46 44 42 39 36 33 32 31 28 26 23 19 15 13 11 9 9 8 6 6 10 9 6 9 16 16 16 27 47 61 73 80 81 80 78 73 69 71 76 82 86 90 94 99 103 105 108 111 116 121 126 129 132 136 139 142 145 146 143 143 149 155 157 158 161 162 163 168 173 175 175 176
59 59 59 58 57 57 57 56 54 51 49 46 45 44 42 42 40 38 35 35 33 30 27 26 24 22 22 20 17 16 17 18 18 20 19 19 24 32 34 38 50 59 60 69 85 90 89 85 79 73 72 80 89 95 98 100 102 104 106 108 110 112 115 120 126 131 134 136 139 145 149 149 148 152 157 159 161 166 169 165 163 169 173 176 177
62 61 61 60 58 57 57 57 55 51 48 46 44 42 40 37 36 36 36 36 35 32 28 26 25 26 29 31 28 24 24 24 25 26 30 34 39 42 42 42 45 48 50 58 74 83 80 74 71 73 79 87 93 96 99 102 103 105 107 109 112 114 117 122 126 131 135 138 140 144 150 153 153 152 153 152 153 160 167 167 162 161 165 169 175